• In Russia
  • List of Countries
  • For 7 days
  • Water Temperature
  • Satellite Maps
  • Weather Map
  • Weather Widgets
  • user-avatar
    Login

    Hourly Weather Barra

    Today, 16 August, Wednesday

    Time Temperature Precipitation Wind Pressure Humidity
    00:00 +18°C° 0 mm 1 mps 750 mmHg 91%
    01:00 +18°C° 0 mm 1 mps 750 mmHg 92%
    02:00 +18°C° 0 mm 1 mps 750 mmHg 93%
    03:00 +18°C° 0 mm 1 mps 750 mmHg 93%
    04:00 +18°C° 0 mm 1 mps 749 mmHg 94%
    05:00 +18°C° 0 mm 1 mps 750 mmHg 94%
    06:00 +18°C° 0 mm 1 mps 750 mmHg 94%
    07:00 +18°C° 0 mm 1 mps 750 mmHg 94%
    08:00 +21°C° 0 mm 1 mps 750 mmHg 82%
    09:00 +24°C° 0 mm 1 mps 751 mmHg 69%
    10:00 +27°C° 0 mm 2 mps 751 mmHg 57%
    11:00 +28°C° 0 mm 2 mps 750 mmHg 54%
    12:00 +29°C° 0 mm 2 mps 750 mmHg 50%
    13:00 +29°C° 0 mm 2 mps 750 mmHg 47%
    14:00 +29°C° 0 mm 2 mps 749 mmHg 49%
    15:00 +28°C° 0 mm 2 mps 749 mmHg 52%
    16:00 +27°C° 0 mm 2 mps 748 mmHg 57%
    17:00 +25°C° 0 mm 2 mps 748 mmHg 67%
    18:00 +23°C° 0 mm 2 mps 749 mmHg 78%
    19:00 +20°C° 0 mm 2 mps 749 mmHg 89%
    20:00 +20°C° 0 mm 1 mps 749 mmHg 91%
    21:00 +20°C° 0 mm 1 mps 750 mmHg 93%
    22:00 +19°C° 0 mm 1 mps 750 mmHg 94%
    23:00 +19°C° 0 mm 1 mps 750 mmHg 95%

    Tomorrow, 17 August, Thursday

    Time Temperature Precipitation Wind Pressure Humidity
    00:00 +19°C° 0 mm 1 mps 750 mmHg 96%
    01:00 +19°C° 0 mm 1 mps 750 mmHg 96%
    02:00 +19°C° 0 mm 1 mps 750 mmHg 97%
    03:00 +19°C° 0 mm 1 mps 750 mmHg 97%
    04:00 +19°C° 0 mm 1 mps 749 mmHg 98%
    05:00 +19°C° 0 mm 1 mps 750 mmHg 97%
    06:00 +19°C° 0 mm 1 mps 750 mmHg 97%
    07:00 +19°C° 0 mm 1 mps 750 mmHg 97%
    08:00 +22°C° 0 mm 1 mps 750 mmHg 85%
    09:00 +25°C° 0 mm 1 mps 751 mmHg 72%
    10:00 +27°C° 0 mm 1 mps 751 mmHg 59%
    11:00 +28°C° 0 mm 1 mps 750 mmHg 54%
    12:00 +30°C° 0 mm 1 mps 750 mmHg 49%
    13:00 +31°C° 0 mm 1 mps 749 mmHg 45%
    14:00 +30°C° 0 mm 1 mps 749 mmHg 47%
    15:00 +30°C° 0 mm 2 mps 748 mmHg 50%
    16:00 +29°C° 0 mm 2 mps 748 mmHg 52%
    17:00 +26°C° 0 mm 1 mps 748 mmHg 65%
    18:00 +24°C° 0 mm 1 mps 749 mmHg 78%
    19:00 +21°C° 0 mm 1 mps 749 mmHg 91%
    20:00 +21°C° 0 mm 1 mps 750 mmHg 93%
    21:00 +20°C° 0 mm 1 mps 750 mmHg 94%
    22:00 +20°C° 0 mm 1 mps 751 mmHg 96%
    23:00 +19°C° 0 mm 1 mps 750 mmHg 97%

    Day after tomorrow, 18 August, Friday

    Time Temperature Precipitation Wind Pressure Humidity
    00:00 +17°C° 0 mm 0 mps 750 mmHg 97%
    01:00 +17°C° 0 mm 0 mps 750 mmHg 97%
    02:00 +17°C° 0 mm 0 mps 750 mmHg 97%
    03:00 +19°C° 0 mm 1 mps 750 mmHg 97%
    04:00 +19°C° 0 mm 1 mps 750 mmHg 96%
    05:00 +18°C° 0 mm 1 mps 750 mmHg 96%
    06:00 +18°C° 0 mm 1 mps 750 mmHg 96%
    07:00 +18°C° 0 mm 1 mps 751 mmHg 95%
    08:00 +22°C° 0 mm 1 mps 751 mmHg 81%
    09:00 +25°C° 0 mm 1 mps 752 mmHg 67%
    10:00 +28°C° 0 mm 1 mps 752 mmHg 53%
    11:00 +29°C° 0 mm 2 mps 752 mmHg 49%
    12:00 +30°C° 0 mm 2 mps 751 mmHg 45%
    13:00 +31°C° 0 mm 2 mps 751 mmHg 41%
    14:00 +31°C° 0 mm 2 mps 750 mmHg 42%
    15:00 +30°C° 0 mm 2 mps 750 mmHg 44%
    16:00 +30°C° 0 mm 2 mps 750 mmHg 46%
    17:00 +27°C° 0 mm 2 mps 750 mmHg 57%
    18:00 +25°C° 0 mm 1 mps 750 mmHg 69%
    19:00 +22°C° 0 mm 1 mps 751 mmHg 81%
    20:00 +22°C° 0 mm 1 mps 751 mmHg 82%
    21:00 +21°C° 0 mm 1 mps 752 mmHg 83%
    22:00 +21°C° 0 mm 1 mps 752 mmHg 84%
    23:00 +21°C° 0 mm 1 mps 752 mmHg 85%

    19 August, Saturday

    Time Temperature Precipitation Wind Pressure Humidity
    00:00 +20°C° 0 mm 1 mps 752 mmHg 86%
    01:00 +19°C° 0 mm 2 mps 752 mmHg 87%
    02:00 +19°C° 0 mm 2 mps 752 mmHg 88%
    03:00 +19°C° 0 mm 2 mps 752 mmHg 90%
    04:00 +18°C° 0 mm 2 mps 751 mmHg 91%
    05:00 +18°C° 0 mm 2 mps 752 mmHg 91%
    06:00 +18°C° 0 mm 2 mps 752 mmHg 90%
    07:00 +18°C° 0 mm 2 mps 753 mmHg 89%
    08:00 +21°C° 0 mm 3 mps 753 mmHg 75%
    09:00 +25°C° 0 mm 3 mps 753 mmHg 62%
    10:00 +28°C° 0 mm 4 mps 754 mmHg 48%
    11:00 +28°C° 0 mm 4 mps 753 mmHg 45%
    12:00 +29°C° 0 mm 5 mps 752 mmHg 41%
    13:00 +30°C° 0 mm 5 mps 752 mmHg 38%
    14:00 +29°C° 0 mm 5 mps 751 mmHg 42%
    15:00 +28°C° 0 mm 5 mps 751 mmHg 46%
    16:00 +27°C° 0 mm 5 mps 750 mmHg 50%
    17:00 +25°C° 0 mm 4 mps 751 mmHg 60%
    18:00 +22°C° 0 mm 3 mps 751 mmHg 69%
    19:00 +20°C° 0 mm 2 mps 752 mmHg 78%
    20:00 +19°C° 0 mm 3 mps 752 mmHg 81%
    21:00 +19°C° 0 mm 3 mps 753 mmHg 84%
    22:00 +18°C° 0 mm 3 mps 753 mmHg 87%
    23:00 +18°C° 0 mm 3 mps 753 mmHg 88%

    20 August, Sunday

    Time Temperature Precipitation Wind Pressure Humidity
    00:00 +17°C° 0 mm 3 mps 753 mmHg 89%
    01:00 +17°C° 0 mm 3 mps 753 mmHg 91%
    02:00 +17°C° 0 mm 3 mps 752 mmHg 91%
    03:00 +17°C° 0 mm 3 mps 752 mmHg 91%
    04:00 +16°C° 0 mm 3 mps 752 mmHg 91%
    05:00 +16°C° 0 mm 3 mps 753 mmHg 87%
    06:00 +15°C° 0 mm 4 mps 753 mmHg 83%
    07:00 +15°C° 0 mm 4 mps 753 mmHg 78%
    08:00 +18°C° 0 mm 4 mps 754 mmHg 63%
    09:00 +21°C° 0 mm 5 mps 754 mmHg 48%
    10:00 +23°C° 0 mm 5 mps 754 mmHg 33%
    11:00 +25°C° 0 mm 5 mps 753 mmHg 34%
    12:00 +25°C° 0 mm 5 mps 752 mmHg 35%
    13:00 +26°C° 0 mm 5 mps 752 mmHg 36%
    14:00 +26°C° 0 mm 4 mps 751 mmHg 38%
    15:00 +25°C° 0 mm 4 mps 751 mmHg 39%
    16:00 +25°C° 0 mm 3 mps 750 mmHg 41%
    17:00 +21°C° 0 mm 3 mps 751 mmHg 50%
    18:00 +19°C° 0 mm 2 mps 751 mmHg 58%
    19:00 +17°C° 0 mm 2 mps 752 mmHg 67%
    20:00 +16°C° 0 mm 2 mps 752 mmHg 70%
    21:00 +16°C° 0 mm 2 mps 752 mmHg 72%
    22:00 +15°C° 0 mm 2 mps 753 mmHg 75%
    23:00 +15°C° 0 mm 2 mps 752 mmHg 76%

    21 August, Monday

    Time Temperature Precipitation Wind Pressure Humidity
    00:00 +15°C° 0 mm 2 mps 752 mmHg 77%
    01:00 +13°C° 0 mm 3 mps 752 mmHg 78%
    02:00 +13°C° 0 mm 3 mps 751 mmHg 80%
    03:00 +13°C° 0 mm 3 mps 751 mmHg 82%
    04:00 +13°C° 0 mm 3 mps 751 mmHg 84%
    05:00 +13°C° 0 mm 3 mps 752 mmHg 86%
    06:00 +13°C° 0 mm 3 mps 752 mmHg 87%
    07:00 +13°C° 0 mm 3 mps 753 mmHg 89%
    08:00 +17°C° 0 mm 3 mps 753 mmHg 77%
    09:00 +20°C° 0 mm 3 mps 753 mmHg 66%
    10:00 +24°C° 0 mm 3 mps 753 mmHg 55%
    11:00 +25°C° 0 mm 3 mps 752 mmHg 51%
    12:00 +26°C° 0 mm 3 mps 751 mmHg 48%
    13:00 +27°C° 0 mm 3 mps 751 mmHg 45%
    14:00 +27°C° 0 mm 3 mps 750 mmHg 47%
    15:00 +26°C° 0 mm 2 mps 750 mmHg 48%
    16:00 +26°C° 0 mm 2 mps 750 mmHg 50%
    17:00 +24°C° 0 mm 2 mps 750 mmHg 60%
    18:00 +21°C° 0 mm 2 mps 751 mmHg 69%
    19:00 +19°C° 0 mm 1 mps 751 mmHg 79%
    20:00 +19°C° 0 mm 1 mps 752 mmHg 82%
    21:00 +18°C° 0 mm 1 mps 752 mmHg 85%
    22:00 +17°C° 0 mm 2 mps 752 mmHg 89%
    23:00 +18°C° 0 mm 1 mps 752 mmHg 90%
    Show more